This is the latest recevied weather packets stored in our database for station/object KD2PO-13. If no packets are shown the sender has not sent any weather packets the latest 10 day(s).
| Time | Temp. | Humidity | Pressure | Rain* | Wind** | Luminosity | Snow |
|---|---|---|---|---|---|---|---|
| 1778163880 | 8.89° C | 62% | 0 hPa | 0 mm | - | - | - |
| 1778163880 | 8.89° C | 62% | 0 hPa | 0 mm | - | - | - |
| 1778163280 | 8.89° C | 65% | 0 hPa | 0 mm | - | - | - |
| 1778162980 | 8.33° C | 65% | 0 hPa | 0 mm | - | - | - |
| 1778162680 | 8.33° C | 63% | 0 hPa | 0 mm | - | - | - |
| 1778162379 | 8.33° C | 63% | 0 hPa | 0 mm | - | - | - |
| 1778162080 | 8.89° C | 68% | 0 hPa | 0 mm | - | - | - |
| 1778161779 | 8.33° C | 67% | 0 hPa | 0 mm | - | - | - |
| 1778161480 | 7.78° C | 68% | 0 hPa | 0 mm | - | - | - |
| 1778161180 | 7.78° C | 64% | 0 hPa | 0 mm | - | - | - |
| 1778160880 | 7.78° C | 64% | 0 hPa | 0 mm | - | - | - |
| 1778160580 | 7.78° C | 64% | 0 hPa | 0 mm | - | - | - |
| 1778160280 | 7.78° C | 63% | 0 hPa | 0 mm | - | - | - |
| 1778159980 | 7.78° C | 66% | 0 hPa | 0 mm | - | - | - |
| 1778159680 | 7.22° C | 68% | 0 hPa | 0 mm | - | - | - |
| 1778159379 | 7.22° C | 68% | 0 hPa | 0 mm | - | - | - |
| 1778159079 | 6.67° C | 68% | 0 hPa | 0 mm | - | - | - |
| 1778158780 | 6.67° C | 70% | 0 hPa | 0 mm | - | - | - |
| 1778158480 | 6.11° C | 70% | 0 hPa | 0 mm | - | - | - |
| 1778158180 | 6.11° C | 68% | 0 hPa | 0 mm | - | - | - |
| 1778157879 | 6.11° C | 68% | 0 hPa | 0 mm | - | - | - |
| 1778157579 | 6.67° C | 71% | 0 hPa | 0 mm | - | - | - |
| 1778156980 | 6.67° C | 67% | 0 hPa | 0 mm | - | - | - |
| 1778156680 | 6.67° C | 69% | 0 hPa | 0 mm | - | - | - |
| 1778156079 | 5.56° C | 70% | 0 hPa | 0 mm | - | - | - |
* Rain latest hour (hover to see other rain measurements)
** Current wind speed in m/s (hover to see current wind gust speed)